User: anonymous   Login
Location: SAPM � Hemmingford
(45.0500°N, 73.5833°W)
Time: 00:46:36
(UTC-05:00)
Language:

Cosmos 1674 Rocket - Orbit

View from above orbital plane
View from above orbital plane
View from above satellite
View from above satellite

Ground track
Ground track

The orbit data is extracted from the following two-line orbital elements,

1 15945U 85069B   14325.98820299  .00000662  00000-0  77369-4 0  8230
2 15945 082.5275 291.4616 0021372 135.4763 286.3964 14.83486522581913
Epoch (UTC): 21 November 2014 23:43:00
Eccentricity: 0.0021372
inclination: 82.5275°
perigee height: 603 km
apogee height: 633 km
right ascension of ascending node: 291.4616°
argument of perigee: 135.4763°
revolutions per day: 14.83486522
mean anomaly at epoch: 286.3964°
orbit number at epoch: 58191

The dashed part of the orbit path shows where the satellite is in the earth's shadow,  

DLR